Wind_Speed
12 12 12 12 13 13 13 13 14 14 15 15 15 15 15 15 15 14 15 15 15 15 15 15 15 15 15 15 14 14 15 16 17 17 17 17 17 17 17 17 18 18 19
12 13 13 13 13 13 13 13 14 14 15 15 15 15 15 16 15 15 15 15 16 16 16 16 16 16 16 16 15 15 16 16 17 18 18 18 19 18 18 18 18 19 19
13 13 13 13 13 13 13 13 14 14 14 14 15 15 15 16 16 16 16 16 16 17 17 17 17 17 17 17 17 17 17 17 18 18 19 19 20 20 20 19 20 19 19
13 13 13 13 13 13 13 13 14 13 13 14 14 15 15 16 16 16 16 16 17 17 17 18 18 17 17 17 18 18 18 19 19 19 19 19 20 20 21 21 21 21 21
13 13 13 13 13 13 13 14 14 14 13 13 14 14 15 15 15 16 16 16 16 17 17 18 18 18 18 18 19 19 19 19 19 19 20 20 20 20 20 21 21 21 22
13 13 13 13 13 13 13 13 13 14 14 14 15 15 15 15 15 16 16 17 17 17 18 18 18 18 18 18 19 20 20 21 21 21 20 20 21 21 20 21 21 21 21
13 13 13 13 14 14 13 14 15 15 15 15 15 16 16 16 17 17 18 18 18 18 18 18 19 19 19 19 20 20 21 22 22 22 21 21 21 22 22 21 21 22 22
14 14 14 14 15 14 14 15 15 15 15 16 16 16 17 17 18 18 18 19 19 19 19 19 19 19 19 20 20 21 21 22 22 23 22 22 22 22 22 22 22 21 21
15 14 15 15 15 15 15 15 16 16 17 17 18 18 18 18 19 19 20 20 20 20 21 21 20 20 20 20 20 21 22 22 23 23 23 23 22 23 23 23 23 22 22
15 16 16 15 15 15 16 16 17 17 18 18 19 19 20 20 20 20 20 21 21 21 21 22 22 22 22 22 22 22 23 23 23 23 23 23 23 23 23 23 24 24 23
16 16 17 16 16 16 16 17 18 19 19 19 19 20 20 20 20 21 22 22 21 21 22 22 22 23 23 23 23 24 24 24 24 24 24 24 23 24 24 24 24 24 24
17 17 17 17 17 18 18 19 20 20 19 20 21 21 21 21 22 22 23 23 23 23 24 24 24 25 25 25 25 26 26 25 26 26 25 25 25 25 24 25 24 24 24
18 18 18 18 19 19 20 21 22 22 22 21 22 22 23 23 24 25 25 25 26 26 26 26 26 27 27 27 26 26 27 27 27 26 26 26 25 25 25 25 25 25 25
19 19 19 20 20 21 22 22 23 23 24 24 24 25 25 26 26 27 27 27 28 28 28 28 28 28 29 28 27 27 28 28 28 27 27 27 26 26 26 26 27 26 26
21 21 21 21 22 23 24 24 25 26 26 27 27 27 27 28 28 28 29 29 29 29 29 29 29 29 29 28 28 28 28 28 28 28 28 27 27 27 27 28 28 28 28
22 22 22 23 24 25 25 26 26 27 27 28 28 29 28 29 29 29 29 29 29 29 28 28 28 28 28 28 28 27 27 27 28 28 28 28 28 28 29 29 30 29 29
22 22 23 24 25 26 26 26 26 27 28 28 29 29 29 28 28 29 28 28 28 28 27 27 27 27 27 26 26 26 27 27 28 28 28 28 28 29 29 29 30 30 30
22 23 24 25 26 26 26 27 27 27 27 28 28 28 28 28 28 28 28 27 26 26 26 26 26 26 26 26 26 26 27 27 28 28 29 29 29 29 29 30 30 30 31
23 23 24 25 25 26 26 26 26 27 27 27 28 27 28 27 27 26 26 26 25 24 25 25 25 25 25 25 25 26 26 27 28 28 29 29 29 29 30 31 31 30 31
23 24 24 24 25 25 26 26 26 26 26 26 26 26 26 26 27 25 25 24 24 23 24 24 24 24 24 24 25 26 27 28 28 28 28 28 29 29 30 30 31 31 31
23 24 24 24 24 25 25 25 25 25 25 25 25 25 25 25 25 25 24 24 24 24 23 24 24 24 23 24 25 27 27 26 26 26 26 27 28 29 29 29 30 30 30
23 23 24 24 24 25 25 25 25 24 24 24 24 24 24 24 23 24 24 25 24 24 24 24 24 24 24 25 26 26 26 25 25 25 25 26 27 28 29 30 30 30 30
22 22 23 24 24 24 24 24 23 23 23 23 23 23 23 23 24 24 25 25 25 24 24 24 24 25 25 26 26 26 26 25 24 24 25 25 26 27 28 28 28 29 29
23 22 22 22 23 24 23 23 23 22 22 22 23 23 23 24 24 23 23 24 24 24 24 24 25 25 25 26 26 25 24 24 24 23 24 24 24 25 25 26 27 27 28
23 22 22 22 22 23 23 22 22 22 22 23 23 23 23 23 23 23 23 23 23 24 24 25 25 25 25 25 25 25 24 23 23 23 23 23 24 24 24 24 25 26 26
23 22 22 22 22 22 22 23 23 23 23 23 23 23 23 23 23 23 23 24 24 24 25 25 25 25 25 25 24 24 23 23 23 23 23 23 23 23 24 24 24 25 26
Wind_Direction
264 264 264 263 263 265 267 268 270 271 273 275 276 276 275 276 276 275 274 272 272 274 276 275 274 274 274 276 276 274 273 270 269 268 267 265 264 268 265 262 263 263 264
264 265 265 265 265 267 268 269 271 271 272 273 274 274 274 275 275 276 277 275 272 273 274 277 276 275 276 276 275 274 274 273 271 268 266 264 264 264 266 264 264 264 264
267 268 266 266 267 266 268 270 272 272 271 271 272 273 273 274 275 275 275 275 274 275 277 276 277 277 277 275 274 273 274 274 273 270 266 264 265 265 265 265 264 264 264
267 267 267 267 268 266 270 274 273 271 270 271 272 273 273 274 275 275 276 276 276 277 279 278 278 276 276 275 274 273 274 275 274 272 270 267 266 266 266 265 265 263 263
265 266 267 265 266 267 273 276 274 273 272 274 276 276 275 275 275 275 276 277 278 280 280 280 279 277 277 277 276 275 275 275 275 274 272 269 267 267 267 265 264 264 263
264 264 263 262 263 267 271 275 274 275 275 277 279 279 278 277 276 276 278 279 281 282 280 280 280 280 278 277 277 276 275 275 275 274 273 271 269 268 268 265 263 263 263
262 261 262 262 262 266 270 272 274 275 277 279 280 281 280 280 278 279 280 280 279 280 280 280 280 280 278 277 277 276 275 276 275 274 273 271 269 268 269 267 266 265 265
261 260 262 263 264 266 268 270 273 276 277 280 280 280 279 280 280 280 280 279 279 279 279 279 280 281 280 279 279 278 278 276 275 273 272 270 268 267 267 266 265 265 266
260 259 261 262 264 267 269 272 274 277 278 278 278 280 280 279 281 281 281 281 280 281 280 279 280 280 280 279 279 280 280 278 275 274 272 270 268 266 265 265 265 265 266
259 262 262 262 264 266 270 274 276 279 279 278 278 279 280 280 283 283 282 281 281 282 280 279 279 279 279 279 281 281 279 278 276 274 272 270 268 266 265 265 264 264 264
260 261 262 263 263 266 271 274 276 278 279 280 280 282 282 283 285 287 285 283 282 281 280 280 279 279 279 279 280 281 279 278 277 274 271 270 268 267 265 263 263 262 262
260 261 263 264 266 268 270 272 275 277 277 278 279 281 283 284 286 287 287 285 283 283 282 280 279 279 279 280 280 280 280 278 277 274 271 270 269 267 265 263 262 262 262
262 262 263 265 266 268 270 275 277 278 278 279 279 281 281 284 286 287 287 286 284 283 282 280 280 279 279 279 280 280 279 278 277 273 269 270 269 268 267 263 261 262 262
263 264 265 266 267 268 270 275 275 277 279 279 279 280 281 282 285 287 287 287 286 284 282 281 281 280 279 278 278 278 278 277 275 271 269 269 269 267 267 264 261 262 262
264 265 267 268 268 269 272 274 275 277 279 279 280 280 281 282 284 285 286 286 285 285 283 281 280 279 280 279 279 278 278 276 273 271 269 268 268 267 266 265 262 262 262
267 267 268 269 269 271 272 273 275 275 277 278 279 280 281 282 283 286 287 287 285 284 283 282 281 280 280 280 279 278 275 274 273 271 269 267 267 267 266 266 264 263 262
270 270 271 270 271 271 272 273 274 275 276 277 278 280 281 282 283 285 287 287 285 284 282 281 282 282 283 282 281 278 276 274 272 270 268 267 268 268 267 265 264 263 262
271 272 272 272 272 272 273 276 277 278 279 278 280 281 281 281 283 285 286 287 285 284 283 282 282 282 283 282 280 279 278 275 273 271 269 269 268 267 267 266 265 263 262
273 275 275 275 275 275 276 278 278 279 280 280 281 282 281 282 283 283 285 286 287 286 284 282 283 283 283 282 282 281 279 277 276 273 271 270 269 268 268 267 266 265 262
274 276 277 277 276 277 278 278 279 279 280 281 281 281 282 282 283 283 283 285 286 286 286 285 286 284 283 284 284 283 282 280 277 274 272 270 269 268 269 268 266 265 263
274 276 278 279 279 279 279 279 279 280 281 281 280 280 280 281 282 284 284 285 285 285 287 287 287 286 285 287 286 285 284 281 278 276 273 271 269 268 268 268 266 265 264
275 277 278 279 280 280 280 280 280 280 280 281 281 281 281 281 283 285 285 284 285 285 286 287 287 287 288 288 289 288 286 284 280 277 276 273 270 269 267 266 266 265 264
277 278 277 278 280 281 281 280 280 279 278 277 279 280 281 281 282 282 282 283 285 285 285 287 287 287 289 290 291 291 288 285 281 278 277 276 273 271 269 268 267 265 265
278 279 278 279 280 281 281 280 280 280 279 279 279 281 283 283 283 282 284 285 286 286 287 289 289 290 292 292 292 292 288 284 281 279 278 277 275 274 272 269 268 267 265
278 279 280 280 281 280 280 280 280 281 282 281 282 283 284 287 285 286 288 289 289 289 289 290 290 292 293 294 292 289 287 283 281 280 280 279 278 276 275 273 271 269 267
277 278 279 279 280 281 279 279 279 280 281 283 284 285 284 286 287 287 288 289 289 290 291 291 292 292 293 292 291 288 285 281 279 280 280 279 279 279 277 274 273 271 269
Height
5837 5837 5837 5838 5838 5838 5838 5838 5838 5838 5838 5837 5837 5836 5836 5836 5835 5835 5835 5834 5834 5833 5833 5832 5832 5831 5831 5830 5830 5829 5829 5828 5828 5828 5828 5827 5827 5827 5826 5826 5826 5826 5825
5834 5834 5834 5834 5835 5835 5835 5835 5835 5834 5834 5834 5833 5833 5832 5832 5832 5831 5831 5830 5830 5830 5829 5829 5828 5827 5827 5826 5826 5825 5825 5824 5823 5823 5823 5823 5823 5823 5822 5822 5822 5821 5821
5831 5831 5831 5831 5831 5831 5831 5831 5831 5831 5830 5830 5829 5829 5829 5828 5828 5827 5827 5826 5826 5826 5825 5824 5824 5823 5823 5822 5822 5821 5820 5820 5819 5819 5819 5819 5818 5818 5818 5817 5817 5817 5817
5827 5827 5827 5827 5828 5828 5828 5827 5827 5827 5826 5826 5825 5825 5824 5824 5824 5823 5823 5822 5822 5821 5821 5820 5819 5819 5818 5817 5817 5816 5816 5815 5814 5814 5813 5813 5813 5813 5812 5813 5812 5812 5812
5824 5824 5824 5824 5824 5824 5824 5823 5823 5823 5822 5822 5821 5821 5820 5820 5820 5819 5819 5818 5818 5817 5816 5815 5814 5814 5813 5812 5812 5811 5811 5810 5809 5809 5808 5808 5807 5807 5807 5807 5807 5807 5807
5820 5820 5820 5820 5820 5820 5820 5819 5819 5819 5818 5818 5818 5817 5816 5816 5815 5815 5814 5814 5813 5812 5811 5810 5810 5809 5808 5807 5807 5806 5806 5805 5804 5803 5803 5802 5802 5801 5801 5801 5801 5801 5801
5816 5816 5816 5816 5816 5816 5816 5816 5815 5815 5814 5814 5813 5813 5812 5811 5811 5810 5810 5809 5808 5807 5806 5805 5805 5804 5803 5802 5801 5801 5800 5799 5799 5798 5797 5797 5796 5796 5796 5795 5795 5795 5795
5812 5812 5812 5812 5812 5812 5812 5812 5811 5811 5810 5809 5809 5808 5807 5806 5806 5805 5804 5803 5802 5801 5801 5800 5799 5798 5797 5797 5796 5795 5794 5793 5793 5792 5791 5791 5790 5790 5790 5790 5790 5790 5790
5808 5808 5808 5808 5808 5808 5808 5807 5807 5806 5806 5805 5804 5803 5802 5802 5801 5799 5798 5797 5796 5795 5794 5794 5793 5792 5791 5791 5790 5789 5788 5787 5786 5786 5785 5784 5784 5784 5784 5784 5784 5784 5784
5803 5803 5804 5804 5804 5804 5803 5803 5802 5802 5801 5800 5799 5798 5797 5796 5795 5794 5793 5791 5790 5789 5788 5787 5786 5786 5785 5784 5783 5782 5782 5781 5779 5779 5778 5778 5778 5777 5777 5777 5777 5777 5778
5798 5799 5799 5799 5799 5798 5798 5798 5797 5797 5796 5795 5794 5793 5792 5791 5789 5788 5786 5785 5784 5782 5781 5780 5779 5778 5778 5777 5776 5775 5774 5773 5772 5771 5771 5771 5770 5770 5770 5770 5770 5770 5771
5793 5793 5793 5793 5793 5793 5793 5792 5792 5791 5790 5789 5788 5787 5786 5785 5783 5782 5780 5778 5777 5775 5774 5773 5772 5771 5770 5769 5768 5767 5766 5765 5764 5763 5763 5763 5763 5763 5763 5763 5763 5764 5764
5788 5788 5788 5788 5788 5788 5787 5786 5786 5785 5784 5783 5782 5781 5779 5778 5776 5774 5773 5771 5769 5767 5766 5765 5763 5762 5761 5760 5759 5758 5757 5756 5756 5755 5755 5755 5755 5755 5755 5755 5756 5756 5756
5782 5782 5782 5782 5782 5781 5781 5780 5779 5778 5777 5776 5775 5774 5772 5770 5769 5766 5764 5762 5760 5758 5757 5755 5754 5753 5752 5751 5750 5749 5748 5747 5747 5747 5747 5747 5747 5747 5747 5747 5748 5748 5749
5776 5776 5776 5775 5775 5775 5774 5773 5772 5771 5770 5769 5767 5766 5764 5762 5760 5757 5755 5753 5751 5748 5747 5745 5744 5743 5742 5741 5740 5739 5738 5738 5737 5738 5738 5738 5738 5738 5739 5739 5739 5740 5740
5769 5769 5769 5768 5768 5767 5766 5765 5764 5763 5762 5760 5759 5757 5755 5753 5750 5748 5745 5743 5741 5739 5737 5736 5734 5733 5732 5731 5730 5729 5729 5729 5728 5728 5729 5729 5729 5729 5730 5730 5730 5731 5731
5762 5762 5761 5761 5760 5759 5758 5757 5756 5754 5753 5751 5749 5747 5745 5743 5741 5738 5736 5733 5731 5730 5728 5726 5725 5724 5722 5722 5721 5720 5719 5719 5719 5719 5719 5720 5720 5720 5720 5721 5721 5721 5722
5755 5754 5753 5752 5751 5750 5749 5748 5747 5745 5744 5742 5740 5738 5736 5734 5732 5730 5728 5725 5723 5721 5719 5718 5716 5715 5714 5713 5712 5711 5710 5710 5710 5710 5710 5710 5710 5710 5711 5711 5711 5711 5712
5748 5747 5745 5744 5743 5742 5741 5739 5738 5737 5735 5733 5732 5730 5728 5725 5723 5721 5719 5718 5715 5713 5711 5710 5709 5707 5706 5705 5704 5703 5702 5701 5701 5700 5700 5700 5700 5700 5700 5700 5701 5701 5702
5740 5739 5738 5736 5735 5734 5732 5731 5730 5728 5726 5725 5723 5721 5719 5717 5715 5713 5712 5710 5708 5706 5705 5703 5702 5700 5699 5697 5696 5694 5693 5692 5692 5691 5690 5690 5690 5690 5689 5690 5690 5691 5692
5732 5731 5730 5728 5727 5726 5724 5723 5721 5720 5718 5717 5715 5714 5712 5710 5708 5706 5705 5703 5702 5700 5698 5696 5695 5693 5692 5690 5688 5686 5685 5683 5682 5682 5681 5680 5680 5680 5680 5680 5680 5681 5682
5724 5723 5722 5721 5719 5718 5716 5715 5713 5712 5711 5709 5708 5706 5704 5703 5701 5700 5698 5697 5695 5693 5691 5690 5688 5686 5684 5682 5680 5678 5676 5675 5674 5673 5672 5672 5671 5670 5670 5670 5671 5671 5672
5716 5715 5714 5713 5712 5710 5708 5707 5706 5705 5703 5702 5701 5699 5698 5696 5694 5693 5692 5690 5688 5686 5684 5683 5681 5679 5677 5674 5672 5670 5668 5666 5665 5664 5664 5663 5662 5661 5661 5661 5661 5661 5662
5709 5708 5707 5706 5704 5703 5701 5700 5699 5698 5696 5695 5694 5693 5691 5689 5688 5686 5684 5683 5681 5679 5678 5676 5674 5671 5669 5667 5664 5662 5660 5658 5657 5656 5656 5655 5654 5653 5653 5652 5652 5652 5653
5702 5700 5699 5698 5697 5696 5694 5693 5692 5691 5690 5689 5687 5686 5684 5682 5681 5679 5677 5676 5674 5672 5671 5669 5666 5664 5662 5659 5656 5654 5652 5651 5650 5649 5648 5647 5646 5645 5645 5644 5644 5644 5644
5694 5693 5692 5691 5690 5688 5687 5686 5685 5684 5683 5681 5680 5679 5677 5676 5674 5673 5671 5669 5667 5665 5663 5661 5659 5656 5654 5651 5649 5647 5645 5644 5643 5641 5640 5639 5639 5638 5637 5636 5636 5636 5636